Location: Columbia
(38.9520°N, 92.3340°W)
Time: 09:06:59
(UTC-05:00)

Iridium 52 - Visible Passes

Search period start: 21 June 2018 00:00
Search period end: 01 July 2018 00:00
Orbit: 776 x 779 km, 86.4° (Epoch: 20 June)

Date Brightness Start Highest point End Pass type
(mag) Time Alt. Az. Time Alt. Az. Time Alt. Az.
21 Jun 9.1 21:55:03 10° W 21:56:42 11° WNW 21:58:21 10° NW visible
22 Jun 8.7 21:18:53 10° SW 21:22:49 21° WNW 21:26:46 10° NNW visible
25 Jun 9.0 21:20:13 10° WSW 21:23:06 15° WNW 21:26:01 10° NW visible
